This demonstration page uses our WeatherBlox Daily Observations layout. Learn more.

Left ArrowRight Arrow

Hourly Observations for December 26, 2018

Temp ( °F °C ) Dew Point ( °F °C ) Humidity (%) Winds ( mph kmh ) Pressure ( in mb ) Visibility ( mi km ) Precip ( " mm )
12:08 am 00:08 Cloudy with Mist and Fog 34 1 32 0 93 93 E 12 19 30.21 1023 3 4 0.00 0.00
12:53 am 00:53 Cloudy with Mist and Fog 33 0.6 32 0 96 96 E 9 15 30.19 1023 3 4 0.00 0.00
1:11 am 01:11 Mostly Cloudy with Mist and Fog 33 0.6 33 0.6 100 100 E 8 13 30.21 1023 3 5 0.00 0.00
1:20 am 01:20 Mostly Cloudy with Mist and Fog 34 1 34 1 100 100 E 7 11 30.21 1023 4 6 0.00 0.00
1:53 am 01:53 Cloudy with Mist and Fog 34 1.1 33 0.6 97 97 E 9 15 30.20 1023 4 6 0.00 0.00
2:42 am 02:42 Cloudy with Light Rain 34 1.1 33 0.6 97 97 E 7 11 30.24 1024 4 6 0.00 0.03
2:53 am 02:53 Cloudy with Light Rain 34 1.1 33 0.6 97 97 E 9 15 30.20 1023 3 5 0.00 0.03
3:03 am 03:03 Cloudy with Light Rain 34 1 34 1 100 100 E 8 13 30.21 1023 3 4 0.00 0.00
3:21 am 03:21 Cloudy with Light Rain 34 1.1 32 0 92 92 E 10 17 30.21 1023 3 5 0.02 0.51
3:37 am 03:37 Cloudy with Light Wintry Mix 34 1 32 0 93 93 E 12 19 30.18 1022 3 5 0.00 0.00
3:53 am 03:53 Cloudy with Mist and Fog 34 1.1 33 0.6 97 97 E 10 17 30.16 1021 4 6 0.02 0.51
4:31 am 04:31 Cloudy with Mist and Fog 34 1.1 32 0 92 92 E 12 19 30.18 1022 4 6 0.00 0.00
4:44 am 04:44 Cloudy with Mist and Fog 34 1 34 1 100 100 E 13 20 30.15 1021 5 8 0.00 0.00
4:53 am 04:53 Cloudy with Mist and Fog 34 1.1 33 0.6 97 97 E 10 17 30.11 1020 5 8 0.00 0.00
5:39 am 05:39 Cloudy with Light Rain 35 1.7 33 0.6 93 93 E 10 17 30.15 1021 5 8 0.01 0.25
5:53 am 05:53 Cloudy with Light Rain 35 1.7 33 0.6 93 93 E 12 19 30.10 1019 4 6 0.01 0.25
6:30 am 06:30 Cloudy with Mist and Fog 36 2 34 1 93 93 E 9 15 30.12 1020 5 8 0.00 0.00
6:53 am 06:53 Cloudy with Light Rain 35 1.7 33 0.6 93 93 ENE 13 20 30.09 1019 4 6 0.00 0.03
7:24 am 07:24 Cloudy with Light Rain 35 1.7 33 0.6 93 93 E 13 20 30.12 1020 4 6 0.01 0.25
7:53 am 07:53 Cloudy with Light Rain 36 2.2 34 1.1 93 93 E 10 17 30.07 1018 3 5 0.02 0.51
8:03 am 08:03 Cloudy with Light Rain 36 2.2 35 1.7 97 97 E 12 19 30.12 1020 2 3 0.01 0.25
8:22 am 08:22 Cloudy with Light Rain 36 2.2 35 1.7 97 97 E 12 19 30.09 1019 2 3 0.03 0.76
8:31 am 08:31 Cloudy with Light Rain 36 2.2 34 1.1 93 93 E 16 26 30.09 1019 2 3 0.04 1.02
8:44 am 08:44 Cloudy with Light Rain 36 2 36 2 100 100 E 16 26 30.09 1019 3 5 0.00 0.00
8:53 am 08:53 Cloudy with Light Rain 36 2.2 35 1.7 97 97 E 14 22 30.04 1017 3 4 0.05 1.27
9:07 am 09:07 Cloudy with Rain 37 3 36 2 93 93 E 15 24 30.06 1018 1 2 0.00 0.00
9:16 am 09:16 Cloudy with Rain 37 3 36 2 93 93 E 14 22 30.03 1017 1 1 0.00 0.00
9:24 am 09:24 Cloudy with Rain 37 3 36 2 93 93 ESE 16 26 30.06 1018 1 2 0.00 0.00
9:53 am 09:53 Cloudy with Rain 38 3.3 36 2.2 93 93 ESE 14 22 30.03 1017 2 3 0.15 3.81
10:00 am 10:00 Cloudy with Light Rain 37 3 36 2 93 93 ESE 12 19 30.03 1017 2 3 0.00 0.00
10:53 am 10:53 Cloudy with Light Rain 38 3.3 36 2.2 93 93 ESE 12 19 30.00 1016 2 3 0.04 1.02
11:02 am 11:02 Cloudy with Light Rain 37 3 37 3 100 100 ESE 14 22 30.00 1016 1 2 0.00 0.00
11:53 am 11:53 Cloudy with Light Rain 39 3.9 37 2.8 93 93 ESE 10 17 29.94 1014 1 2 0.02 0.51
12:53 pm 12:53 Cloudy with Mist and Fog 39 3.9 38 3.3 96 96 ESE 10 17 29.89 1012 1 2 0.00 0.03
1:16 pm 13:16 Cloudy with Mist and Fog 40 4.4 39 3.9 97 97 ESE 12 19 29.88 1012 1 1 0.00 0.00
1:48 pm 13:48 Cloudy with Light Rain 39 4 39 4 100 100 ESE 13 20 29.88 1012 1 2 0.01 0.25
1:53 pm 13:53 Cloudy with Light Rain 40 4.4 39 3.9 97 97 ESE 12 19 29.85 1011 1 2 0.02 0.51
2:19 pm 14:19 Cloudy with Light Rain 40 4.4 39 3.9 97 97 ESE 12 19 29.88 1012 3 4 0.04 1.02
2:27 pm 14:27 Cloudy with Light Rain 40 4.4 39 3.9 97 97 SE 10 17 29.88 1012 4 6 0.05 1.27
2:42 pm 14:42 Cloudy with Rain 39 4 39 4 100 100 SE 8 13 29.85 1011 2 3 0.00 0.00
2:50 pm 14:50 Cloudy with Rain 39 4 39 4 100 100 SE 12 19 29.85 1011 2 3 0.00 0.00
2:53 pm 14:53 Cloudy with Rain 40 4.4 39 3.9 97 97 SE 13 20 29.85 1011 2 3 0.14 3.56
3:10 pm 15:10 Cloudy with Rain 41 5 39 4 93 93 SE 13 20 29.85 1011 3 5 0.00 0.00
3:53 pm 15:53 Cloudy with Rain 41 5 40 4.4 96 96 SE 9 15 29.85 1011 3 4 0.11 2.79
4:05 pm 16:05 Cloudy with Rain 42 5.6 41 5 96 96 SE 8 13 29.83 1010 2 2 0.05 1.27
4:21 pm 16:21 Cloudy with Rain 42 5.6 41 5 96 96 SE 8 13 29.83 1010 2 2 0.10 2.54
4:26 pm 16:26 Cloudy with Light Rain 43 6 41 5 93 93 SE 9 15 29.83 1010 3 5 0.00 0.00
4:44 pm 16:44 Cloudy with Light Rain 43 6.1 42 5.6 97 97 ESE 9 15 29.83 1010 5 8 0.12 3.05
4:53 pm 16:53 Cloudy with Light Rain 44 6.7 42 5.6 93 93 ESE 9 15 29.81 1010 9 14 0.12 3.05
5:01 pm 17:01 Cloudy with Light Rain 45 7 43 6 93 93 E 8 13 29.80 1009 10 16 0.00 0.00
5:23 pm 17:23 Cloudy with Light Rain 43 6.1 42 5.6 97 97 E 10 17 29.80 1009 6 10 0.01 0.25
5:53 pm 17:53 Cloudy with Light Rain 42 5.6 41 5 96 96 E 9 15 29.78 1009 5 8 0.05 1.27
6:53 pm 18:53 Cloudy with Light Rain 42 5.6 41 5 96 96 ENE 9 15 29.76 1008 3 5 0.09 2.29
7:02 pm 19:02 Cloudy with Light Rain 43 6 41 5 93 93 ENE 10 17 29.74 1007 3 4 0.00 0.00
7:13 pm 19:13 Cloudy with Light Rain 42 5.6 41 5 96 96 ENE 12 19 29.74 1007 4 6 0.02 0.51
7:46 pm 19:46 Cloudy with Rain 43 6 41 5 93 93 ENE 12 19 29.74 1007 2 3 0.00 0.00
7:53 pm 19:53 Cloudy with Rain 42 5.6 41 5 96 96 ENE 12 19 29.73 1007 2 3 0.13 3.30
8:25 pm 20:25 Cloudy with Rain 43 6 41 5 93 93 ENE 10 17 29.74 1007 2 3 0.00 0.00
8:44 pm 20:44 Cloudy with Rain 43 6 41 5 93 93 ENE 12 19 29.74 1007 3 4 0.00 0.00
8:53 pm 20:53 Cloudy with Rain 42 5.6 41 5 96 96 ENE 12 19 29.71 1006 2 3 0.20 5.08
9:28 pm 21:28 Cloudy with Light Rain 43 6 41 5 93 93 ENE 13 20 29.74 1007 3 5 0.00 0.00
9:53 pm 21:53 Cloudy with Light Rain 42 5.6 41 5 96 96 NE 12 19 29.68 1005 3 5 0.06 1.52
10:53 pm 22:53 Cloudy with Light Rain 41 5 40 4.4 96 96 NNE 13 20 29.66 1005 6 10 0.04 1.02
11:53 pm 23:53 Cloudy with Rain 40 4.4 39 3.9 97 97 N 20 31 29.65 1004 4 6 0.12 3.05

Powered by AerisWeather